Regional Weather Roundup
Issued by NWS

Home | Current Version | Previous Version | Graphics & Text | Print | Product List | Glossary On
Versions: 1 2 3 4 5 6 7 8 9 10 11 12 13 14 15 16 17 18 19 20 21 22 23 24 25 26 27 28 29 30 31 32 33 34 35 36 37 38 39 40 41 42 43 44 45 46 47 48 49 50
000
ASUS43 KFSD 220310
RWRSD

WEATHER ROUNDUP FOR SOUTH DAKOTA
NATIONAL WEATHER SERVICE SIOUX FALLS SD
900 PM CST SUN DEC 21 2014

NOTE: "FAIR" INDICATES FEW OR NO CLOUDS BELOW 12,000 FEET WITH NO
SIGNIFICANT WEATHER AND/OR OBSTRUCTIONS TO VISIBILITY.


SDZ001>005-009-010-012>017-220400-
NORTHWEST AND NORTH CENTRAL SOUTH DAKOTA

CITY           SKY/WX    TMP DP  RH WIND       PRES   REMARKS
BUFFALO          N/A     39  36  89 NW23G31   29.35R
FAITH            N/A     38  35  89 W10       29.40S
MOBRIDGE       FOG       30  29  96 SE6       29.41F VSB 3/4 WCI  24
$$

SDZ012>016-024>037-041>051-057-063-072>074-220400-
SOUTHWEST AND SOUTH CENTRAL SOUTH DAKOTA

CITY           SKY/WX    TMP DP  RH WIND       PRES   REMARKS
RAPID CTY ARPT MOCLDY    37  32  82 N13       29.44S
PIERRE         CLOUDY    29  27  92 NW6       29.42R WCI  23
CUSTER         PTCLDY    35  24  64 NW14G26   29.45S WCI  26
ELLSWORTH AFB  MOCLDY    39  35  84 NW10      29.44R
PHILIP         CLOUDY    35  31  85 W8        29.43S WCI  29
PINE RIDGE     PTCLDY    34  29  82 CALM      29.47R
SPEARFISH      LGT RAIN  37  34  87 NW21G32   29.50R
WINNER         CLOUDY    41  31  67 SW14      29.42R
$$

SDZ004>011-016>023-039-040-220400-
NORTHEAST SOUTH DAKOTA

CITY           SKY/WX    TMP DP  RH WIND       PRES   REMARKS
ABERDEEN       CLOUDY    36  33  89 S12       29.47F
WATERTOWN      CLOUDY    35  34  96 S16       29.49F WCI  25
SISSETON         N/A     34  34 100 SE12      29.51F WCI  25
$$

SDZ017-020-022-023-036>040-048>070-220400-
SOUTHEAST SOUTH DAKOTA

CITY           SKY/WX    TMP DP  RH WIND       PRES   REMARKS
SIOUX FALLS    CLOUDY    39  37  92 S16       29.55F
HURON          CLOUDY    36  33  89 S15       29.46F
CHAMBERLAIN    CLOUDY    33  31  93 S7        29.41S WCI  26
MITCHELL       CLOUDY    38  36  92 S13       29.48S
YANKTON        CLOUDY    39  36  87 S15       29.54F
$$

ABBREVIATIONS USED IN REMARKS
   TC - TEMPERATURE IN CELSIUS
  WCI - WIND CHILL INDEX
   HX - HEAT INDEX
  VSB - VISIBILITY



USA.gov is the U.S. government's official web portal to all federal, state and local government web resources and services.